Location: Balmoral
(33.0667°S, 151.5833°E)
Time: 02:58:37
(UTC+00:00)

USA 215 - Pass Details

Date: 18 September 2020
Orbit: 1102 x 1106 km, 123.0° (Epoch: 23 October)

Event Time Altitude Azimuth Distance (km) Brightness Sun altitude
Rises 18:59:14 0° 21° (NNE) 3,911 6.4 -10.9°
Reaches altitude 10° 19:01:54 10° 13° (NNE) 2,959 5.6 -10.4°
Maximum altitude 19:07:54 39° 306° (NW) 1,613 3.8 -9.1°
Drops below altitude 10° 19:13:59 10° 239° (WSW) 2,984 5.0 -7.8°
Sets 19:16:41 0° 231° (SW) 3,947 5.7 -7.3°
